This is the latest recevied weather packets stored in our database for station/object KI4HRG. If no packets are shown the sender has not sent any weather packets the latest 10 day(s).
| Time | Temp. | Humidity | Pressure | Rain* | Wind** | Luminosity | Snow |
|---|---|---|---|---|---|---|---|
| 1778079651 | 23.89° C | 82% | 1014.2 hPa | 0 mm | - | 819 W/m² | - |
| 1778079348 | 23.89° C | 83% | 1013.9 hPa | 0 mm | - | 229 W/m² | - |
| 1778079046 | 23.33° C | 84% | 1014 hPa | 0 mm | - | 290 W/m² | - |
| 1778078742 | 23.33° C | 84% | 1014.2 hPa | 0 mm | - | 266 W/m² | - |
| 1778078439 | 23.33° C | 84% | 1014.2 hPa | 0 mm | - | 215 W/m² | - |
| 1778078137 | 23.33° C | 84% | 1014.2 hPa | 0 mm | - | 342 W/m² | - |
| 1778077835 | 23.33° C | 84% | 1014.1 hPa | 0 mm | - | 224 W/m² | - |
| 1778077533 | 22.78° C | 86% | 1014 hPa | 0 mm | - | 464 W/m² | - |
| 1778077231 | 22.22° C | 87% | 1014.2 hPa | 0 mm | - | 182 W/m² | - |
| 1778076928 | 22.22° C | 87% | 1014.1 hPa | 0 mm | - | 183 W/m² | - |
| 1778076626 | 22.22° C | 87% | 1014 hPa | 0 mm | - | 207 W/m² | - |
| 1778076323 | 22.22° C | 87% | 1014.1 hPa | 0 mm | - | 436 W/m² | - |
| 1778076021 | 22.78° C | 87% | 1014 hPa | 0 mm | - | 212 W/m² | - |
| 1778075717 | 22.22° C | 87% | 1014 hPa | 0 mm | - | 490 W/m² | - |
| 1778075414 | 21.67° C | 88% | 1014.3 hPa | 0 mm | - | 217 W/m² | - |
| 1778075110 | 21.67° C | 89% | 1014.1 hPa | 0 mm | - | 528 W/m² | - |
| 1778074806 | 21.67° C | 90% | 1014.2 hPa | 0 mm | - | 220 W/m² | - |
| 1778074504 | 21.11° C | 90% | 1014.3 hPa | 0 mm | - | 235 W/m² | - |
| 1778074200 | 21.11° C | 91% | 1014.4 hPa | 0 mm | - | 224 W/m² | - |
| 1778073898 | 20.56° C | 91% | 1014.6 hPa | 0 mm | - | 115 W/m² | - |
| 1778073595 | 20.56° C | 92% | 1014.3 hPa | 0 mm | - | 144 W/m² | - |
| 1778073292 | 20.56° C | 92% | 1014.3 hPa | 0 mm | - | 158 W/m² | - |
| 1778072988 | 20.56° C | 92% | 1014.4 hPa | 0 mm | - | 144 W/m² | - |
| 1778072685 | 20.56° C | 93% | 1014.6 hPa | 0 mm | - | 113 W/m² | - |
| 1778072383 | 20° C | 93% | 1014.7 hPa | 0 mm | - | 97 W/m² | - |
* Rain latest hour (hover to see other rain measurements)
** Current wind speed in m/s (hover to see current wind gust speed)